Theta_e
330 332 332 332 330 328 330 334 335 334 329 329 329 329 331 331 331 330 329 328 327 326 321 315 317 329 331 330 326 323 316 320 325 330 329 329 330 331 331 329 328 327 324
329 332 332 336 332 330 331 331 332 331 332 331 332 334 333 333 334 334 333 333 331 330 328 326 323 316 323 327 330 326 323 324 324 323 323 323 323 322 323 323 327 328 327
331 333 333 337 336 335 334 333 333 333 331 332 333 334 333 333 334 335 335 334 333 333 332 331 330 328 326 319 322 330 328 327 328 327 326 325 324 318 314 311 321 325 328
333 333 333 333 333 334 333 333 332 332 332 333 334 333 332 331 333 334 334 333 332 333 333 333 333 333 331 329 326 322 327 328 328 327 327 323 319 317 315 311 316 328 330
331 333 333 332 332 332 331 331 331 330 330 329 329 330 329 327 325 328 331 330 328 326 328 331 332 331 332 332 330 329 326 325 325 324 323 323 321 321 319 316 315 324 327
327 332 333 332 331 331 328 328 326 324 325 324 323 324 324 323 320 320 324 325 322 318 320 322 323 322 327 329 330 331 330 330 328 328 327 326 326 325 324 320 319 321 323
329 330 330 329 327 322 317 317 317 319 319 319 318 317 316 314 313 315 315 314 312 311 312 314 314 313 316 319 320 321 322 328 330 330 329 329 328 327 327 325 322 320 324
328 328 325 322 317 317 315 313 312 312 313 313 312 310 308 306 306 306 305 304 304 304 304 304 304 304 305 307 308 311 315 319 323 325 325 326 327 329 328 328 326 324 323
323 323 321 317 315 310 305 304 304 306 306 305 304 303 303 303 303 303 303 303 303 302 303 302 303 302 302 302 303 303 304 306 308 309 312 314 319 324 321 323 325 325 325
320 317 316 311 306 304 304 303 303 303 303 303 303 302 303 303 302 303 302 303 303 302 302 303 303 303 303 303 303 303 303 303 303 303 302 303 304 308 312 318 321 320 324
317 315 311 306 304 304 304 303 303 303 302 303 303 303 303 303 302 302 302 302 302 302 302 302 302 302 302 302 303 303 303 303 303 303 303 303 303 303 303 307 320 323 325
317 315 310 305 304 304 303 303 303 303 303 304 304 303 303 303 303 303 303 303 303 303 303 303 303 303 303 304 304 303 303 303 303 303 303 303 303 303 303 303 305 315 324
317 313 311 305 303 303 303 303 304 304 304 304 304 304 304 304 304 304 304 303 303 303 303 304 304 304 304 304 304 304 304 304 303 303 303 303 303 303 303 303 302 303 311
314 313 310 304 303 303 303 303 304 305 304 304 304 304 304 304 304 304 303 303 303 304 304 304 304 304 304 304 304 304 303 304 303 304 304 304 304 303 303 303 303 302 302
312 312 309 304 303 303 303 304 304 304 304 304 304 304 304 304 303 303 304 304 304 304 304 303 303 304 304 304 303 304 304 304 304 304 304 304 304 305 305 304 304 303 303
312 310 308 303 303 303 303 304 304 304 304 304 304 304 304 304 303 303 304 304 304 303 303 303 303 303 303 303 303 304 304 304 304 304 304 304 304 304 304 304 304 304 304
313 310 307 304 303 303 303 304 304 304 304 304 304 304 304 304 304 303 303 304 304 303 303 303 303 303 303 303 303 303 303 304 304 304 304 304 304 304 303 303 303 303 303
311 310 307 304 303 303 303 304 304 304 304 304 304 304 304 304 304 304 303 303 303 303 303 303 303 303 303 303 303 303 303 303 303 303 302 303 302 301 300 301 302 303 302
311 309 307 304 304 303 302 303 303 303 303 303 304 304 304 304 303 304 303 303 303 302 302 303 303 303 302 303 303 303 303 302 301 301 301 300 300 301 301 301 302 302 302
309 308 307 305 304 303 302 303 303 303 302 303 303 303 303 303 303 303 303 302 303 302 302 302 302 302 302 302 302 302 301 301 300 300 300 300 300 301 301 302 301 301 300
309 307 306 305 304 303 302 303 303 303 302 303 303 303 303 303 303 303 303 303 302 302 302 302 302 302 301 301 301 301 300 299 299 299 299 300 300 300 300 300 299 298 298
309 307 306 305 304 304 303 303 303 303 302 302 303 303 303 302 302 302 303 303 302 301 302 302 302 301 301 300 298 297 297 298 298 298 299 298 299 299 298 297 296 295 295
308 307 305 305 304 304 303 302 303 302 301 302 303 303 303 302 302 302 302 303 301 301 301 301 301 301 300 299 297 295 295 295 295 297 298 298 298 296 296 295 294 294 293
308 307 306 305 304 304 303 302 303 303 303 302 303 303 302 302 301 302 302 302 301 301 301 301 300 300 299 297 297 295 294 293 293 295 297 296 296 294 294 292 292 291 291
307 306 305 304 304 304 303 302 302 303 302 301 302 302 302 301 301 301 302 302 301 301 301 300 300 299 297 296 296 294 294 294 293 292 292 298 297 293 291 289 290 289 289
305 305 305 304 304 304 303 303 302 303 302 301 301 302 302 302 301 301 301 301 300 300 300 300 300 299 297 296 295 294 294 294 293 291 291 291 291 293 290 288 288 288 287
Wind_Speed
20 15 12 11 11 10 10 9 9 7 6 5 4 4 4 3 2 2 2 3 4 5 5 5 4 4 4 4 4 2 2 4 6 5 5 6 7 7 8 10 11 12 11
18 17 13 11 11 11 11 10 10 8 6 6 6 5 6 5 5 5 4 3 3 3 4 5 5 5 5 6 5 3 3 4 5 7 8 8 8 9 11 13 13 13 12
18 17 16 14 12 12 10 9 9 9 8 7 7 7 6 5 4 6 7 6 5 5 5 5 6 6 6 6 6 6 6 7 8 9 10 11 12 14 16 17 15 15 14
18 17 16 14 13 11 10 9 9 9 9 8 8 8 7 6 7 7 6 6 6 7 7 7 8 9 9 8 7 7 9 11 12 12 13 14 14 15 16 14 12 17 14
20 18 16 15 14 13 12 12 12 12 12 11 11 11 10 10 10 10 10 11 10 11 12 12 12 11 10 11 11 11 11 12 15 16 16 16 16 15 15 15 12 14 17
20 18 17 15 14 14 13 14 14 14 13 12 13 13 13 13 13 12 12 13 14 14 14 15 15 15 15 15 14 13 13 16 17 18 18 18 18 17 16 16 15 16 18
21 19 18 16 16 15 15 15 15 15 15 15 14 14 14 14 13 13 14 15 15 14 14 15 15 15 16 18 19 19 19 19 19 20 21 21 20 19 19 18 18 18 20
19 19 18 17 16 16 17 17 17 16 16 15 14 14 13 12 11 11 12 12 11 10 11 12 13 14 15 16 18 18 19 20 22 23 24 24 23 22 22 21 21 20 22
21 19 18 17 16 16 16 16 17 16 15 13 11 10 8 7 8 8 8 8 7 8 8 9 10 11 12 12 14 16 18 20 22 23 24 24 24 24 23 24 25 24 24
21 19 18 16 14 12 12 12 13 12 12 11 10 9 8 8 7 7 6 6 6 6 7 8 9 10 11 12 13 15 16 18 20 21 22 23 25 25 23 23 26 26 25
24 21 19 17 15 14 14 14 14 13 12 10 9 9 8 7 7 6 6 6 7 7 9 10 11 12 13 14 15 16 17 18 20 21 22 23 23 24 25 24 23 25 27
27 24 22 19 18 17 16 15 14 12 11 10 10 8 8 7 6 7 7 7 8 9 10 11 12 12 13 14 15 17 17 18 20 21 22 23 24 25 25 26 27 28 27
26 25 23 21 20 19 18 16 15 12 11 11 10 9 8 7 6 6 7 8 8 8 10 11 12 13 14 15 16 17 18 19 20 21 21 22 23 25 26 27 28 30 28
27 26 24 24 23 22 20 17 15 13 12 12 10 8 7 7 6 6 7 8 9 9 10 12 13 14 14 16 17 18 18 19 20 20 21 21 22 24 26 27 29 30 31
27 27 26 26 25 23 21 19 16 14 13 12 9 8 7 6 6 6 6 7 9 10 12 13 14 15 15 16 17 19 19 19 19 20 21 21 21 23 24 26 28 30 32
28 29 28 28 26 25 22 19 16 15 14 11 9 7 7 6 6 7 7 8 10 11 13 14 15 16 16 18 18 19 19 19 19 20 21 21 21 21 22 23 25 27 30
31 29 31 30 28 27 22 19 18 17 14 11 9 8 7 7 7 7 8 9 11 12 13 15 16 18 19 19 19 19 19 20 20 21 20 22 23 21 21 23 24 25 25
32 32 31 32 31 28 25 22 20 19 15 12 10 9 8 8 8 8 9 10 12 13 14 16 17 18 19 20 19 19 20 20 20 20 23 21 19 29 31 27 27 29 30
34 32 34 34 33 29 26 24 22 20 17 13 10 9 9 9 10 9 10 11 13 14 15 16 17 19 20 20 20 21 21 22 19 24 19 24 35 29 29 31 37 35 35
37 35 36 36 34 30 27 27 26 24 20 15 12 11 10 11 10 10 10 11 13 14 15 16 17 18 19 21 23 23 24 21 25 19 31 36 28 34 32 33 34 37 37
41 39 40 39 37 34 34 34 31 28 22 17 14 13 11 11 11 10 10 12 13 14 15 16 16 17 18 21 27 30 29 26 22 29 39 32 37 33 30 38 30 32 33
44 43 42 42 40 38 37 34 32 28 23 18 17 15 12 11 11 11 11 12 12 13 15 16 16 16 18 21 26 27 21 31 31 48 39 40 38 29 41 35 38 33 34
47 46 45 44 43 40 38 35 34 30 26 24 22 17 12 11 12 11 11 12 12 13 14 15 14 14 15 19 23 19 12 13 47 41 46 38 27 40 38 44 37 39 39
47 45 45 45 44 41 39 39 37 36 32 26 20 16 14 12 11 11 12 12 12 12 14 14 13 13 15 19 22 23 25 23 18 33 43 42 33 42 45 42 45 45 42
44 47 47 45 44 42 41 40 39 38 32 25 23 20 17 13 11 12 13 13 12 12 13 12 12 13 16 18 21 24 26 27 24 18 41 57 56 43 37 42 47 44 41
43 44 45 46 45 43 41 41 40 39 34 31 27 24 20 15 13 13 14 13 13 13 12 12 12 13 16 19 22 24 25 26 28 21 32 48 49 56 52 40 37 39 38
Wind_Direction
183 186 185 185 190 193 194 196 204 208 209 210 216 225 230 239 270 315 338 347 359 6 7 1 347 350 345 339 334 347 276 260 268 281 298 312 320 315 304 311 313 315 309
183 180 177 178 190 194 198 203 210 213 217 223 232 245 258 262 265 270 269 273 287 313 328 337 338 334 320 321 305 284 267 255 273 286 289 289 292 294 298 298 298 300 304
177 179 176 178 186 195 200 205 212 215 219 224 232 237 244 253 261 266 261 266 269 274 286 295 298 299 303 307 300 275 272 261 278 285 288 293 295 297 296 296 294 289 288
182 187 190 191 197 205 206 207 211 211 215 221 228 236 254 262 264 260 255 267 275 271 269 276 277 278 278 278 282 277 269 266 275 283 284 292 295 302 305 302 281 284 277
183 190 195 199 205 214 222 224 224 226 231 237 247 259 264 267 268 267 264 265 270 271 265 263 268 274 276 273 270 272 272 272 274 277 277 282 288 296 300 300 290 279 279
185 191 194 201 209 219 224 227 233 237 240 242 243 249 256 263 267 266 263 266 267 266 264 264 265 266 266 267 262 262 267 270 270 273 274 277 281 287 288 290 283 285 278
186 192 196 205 213 221 230 237 239 238 237 238 242 246 250 253 254 255 259 261 263 263 262 265 268 268 265 265 266 265 264 263 269 271 274 278 278 280 281 281 279 278 279
197 197 202 211 220 232 241 241 237 233 234 235 240 244 245 244 243 247 252 257 260 262 267 271 272 271 269 269 269 270 269 268 269 271 272 271 273 274 276 278 278 277 273
197 203 209 217 229 238 240 235 228 226 228 226 221 214 214 221 229 236 245 256 271 276 276 276 279 281 280 279 277 275 274 274 275 275 275 275 274 271 272 273 276 277 275
202 206 213 217 219 215 205 188 186 190 191 196 201 204 209 218 223 234 247 257 268 278 283 287 286 285 285 285 283 283 284 283 281 281 281 279 277 275 269 265 270 271 271
206 208 211 209 205 198 188 185 182 186 193 197 204 210 214 220 230 242 254 264 270 278 283 288 290 292 292 292 293 292 288 287 286 286 287 288 285 281 277 267 262 266 269
209 209 208 207 205 199 194 191 190 191 198 206 212 217 223 227 238 255 266 275 281 285 287 288 287 288 292 292 293 292 294 293 292 291 291 291 290 288 283 278 270 258 258
214 211 210 207 202 199 198 196 197 198 204 209 216 223 230 236 245 262 275 279 281 285 288 292 294 296 297 298 298 301 299 300 299 299 297 294 291 288 286 283 277 270 263
215 215 211 206 202 199 199 201 201 202 207 211 218 225 237 248 250 255 265 277 285 290 292 293 295 297 302 304 306 304 306 305 304 301 298 295 294 292 290 287 284 279 272
215 214 211 207 202 202 202 202 202 205 210 213 220 227 237 245 254 260 271 283 292 297 298 297 299 303 306 306 308 310 311 310 308 307 306 306 303 299 296 292 287 284 279
219 216 211 209 205 206 203 203 203 209 212 218 226 234 240 244 250 260 276 285 293 299 300 305 308 312 315 315 317 317 316 315 317 316 317 315 311 309 305 301 296 291 285
222 218 214 209 206 209 204 203 206 211 217 221 230 236 239 247 255 273 284 294 298 302 307 311 315 317 319 317 318 318 320 321 324 322 321 317 314 313 312 306 303 299 293
224 220 215 210 210 209 204 204 207 211 215 224 230 237 248 259 269 277 288 296 303 307 310 315 315 317 316 316 319 321 322 324 326 320 319 315 317 313 309 303 302 299 292
227 222 217 213 211 210 207 205 210 214 216 224 232 239 251 261 270 276 289 302 307 309 311 313 314 316 319 320 322 323 324 325 321 321 324 319 318 320 317 306 304 300 292
227 225 220 215 211 211 211 208 211 215 216 220 227 238 249 257 264 277 291 302 304 305 307 310 316 319 322 323 324 324 325 327 327 330 327 323 322 317 311 309 310 302 296
226 224 220 214 212 212 210 210 212 216 217 220 224 235 246 255 260 274 288 295 299 300 306 311 313 319 324 328 330 329 335 334 327 327 326 322 319 318 314 313 314 307 302
225 223 220 217 213 215 215 215 216 217 219 223 227 232 243 253 259 270 282 291 296 301 306 309 315 323 327 338 342 343 338 339 325 327 327 325 321 320 315 321 314 311 308
223 222 219 218 215 217 218 215 217 215 219 222 225 229 240 251 261 269 280 289 295 298 302 307 312 320 329 336 341 345 340 320 326 327 328 323 320 314 315 318 315 314 314
221 221 221 219 217 218 220 218 219 219 219 224 229 228 238 249 262 271 279 286 289 293 298 301 307 318 328 331 335 334 331 324 324 320 329 313 318 313 316 317 314 315 315
219 219 219 218 217 219 221 222 222 222 222 227 229 229 235 249 263 269 275 283 286 287 290 293 301 315 322 327 329 326 324 321 322 291 300 315 313 314 307 308 314 316 317
219 219 218 217 217 219 222 223 223 224 222 226 229 230 235 247 260 268 273 280 280 282 284 285 294 308 317 322 324 323 320 317 312 298 294 299 301 309 312 312 308 315 312